TimeCDT,TemperatureF,Dew PointF,Humidity,Sea Level PressureIn,VisibilityMPH,Wind Direction,Wind SpeedMPH,Gust SpeedMPH,PrecipitationIn,Events,Conditions,WindDirDegrees,DateUTC
12:15 AM,68.9,65.3,88,29.99,7.0,Calm,Calm,-,N/A,,Clear,0,2013-07-07 05:15:00
12:35 AM,69.4,65.5,87,29.98,7.0,Calm,Calm,-,N/A,,Clear,0,2013-07-07 05:35:00
12:55 AM,69.1,65.7,89,29.98,7.0,Calm,Calm,-,N/A,,Clear,0,2013-07-07 05:55:00
1:15 AM,68.4,65.5,90,29.98,7.0,Calm,Calm,-,N/A,,Clear,0,2013-07-07 06:15:00
1:35 AM,68.0,65.1,90,29.98,7.0,Calm,Calm,-,N/A,,Clear,0,2013-07-07 06:35:00
1:55 AM,68.2,65.3,90,29.98,7.0,Calm,Calm,-,N/A,,Clear,0,2013-07-07 06:55:00
2:15 AM,67.6,64.6,90,29.97,7.0,SSE,4.6,-,N/A,,Clear,150,2013-07-07 07:15:00
2:35 AM,67.5,64.4,90,29.97,7.0,SSE,5.8,-,N/A,,Clear,150,2013-07-07 07:35:00
2:55 AM,66.9,64.4,92,29.97,5.0,SSE,4.6,-,N/A,,Clear,150,2013-07-07 07:55:00
3:15 AM,66.6,64.4,93,29.97,5.0,SE,4.6,-,N/A,,Clear,140,2013-07-07 08:15:00
3:35 AM,66.2,64.0,93,29.97,4.0,SE,4.6,-,N/A,,Clear,140,2013-07-07 08:35:00
3:55 AM,66.4,64.4,93,29.97,4.0,SE,5.8,-,N/A,,Clear,130,2013-07-07 08:55:00
4:15 AM,66.6,64.6,93,29.97,4.0,SE,4.6,-,N/A,,Scattered Clouds,130,2013-07-07 09:15:00
4:35 AM,66.9,64.9,93,29.97,5.0,SE,3.5,-,N/A,,Scattered Clouds,140,2013-07-07 09:35:00
4:55 AM,67.3,65.3,93,29.97,5.0,SE,3.5,-,N/A,,Clear,130,2013-07-07 09:55:00
5:15 AM,66.2,64.0,93,29.97,5.0,SE,4.6,-,N/A,,Clear,140,2013-07-07 10:15:00
5:35 AM,66.2,64.0,93,29.98,2.5,SSE,3.5,-,N/A,,Scattered Clouds,160,2013-07-07 10:35:00
5:55 AM,66.4,64.6,94,29.98,3.0,Calm,Calm,-,N/A,,Clear,0,2013-07-07 10:55:00
6:15 AM,66.6,64.6,93,29.98,3.0,ESE,3.5,-,N/A,,Clear,120,2013-07-07 11:15:00
6:35 AM,68.0,65.7,92,29.98,3.0,SSE,4.6,-,N/A,,Clear,150,2013-07-07 11:35:00
6:55 AM,69.8,67.1,91,29.98,4.0,SSE,4.6,-,N/A,,Clear,150,2013-07-07 11:55:00
7:15 AM,70.7,67.5,89,29.98,5.0,SSE,6.9,-,N/A,,Clear,150,2013-07-07 12:15:00
7:35 AM,72.0,67.6,86,29.99,7.0,SSE,5.8,-,N/A,,Clear,150,2013-07-07 12:35:00
7:55 AM,73.6,68.4,84,29.99,7.0,SSE,5.8,-,N/A,,Clear,150,2013-07-07 12:55:00
8:15 AM,74.8,68.4,80,29.99,10.0,SSE,5.8,-,N/A,,Clear,160,2013-07-07 13:15:00
8:35 AM,76.5,67.6,74,29.99,10.0,South,5.8,-,N/A,,Clear,180,2013-07-07 13:35:00
8:55 AM,77.2,67.3,71,29.98,10.0,South,6.9,-,N/A,,Clear,180,2013-07-07 13:55:00
9:15 AM,78.1,66.4,67,29.98,10.0,South,5.8,-,N/A,,Clear,190,2013-07-07 14:15:00
9:35 AM,79.0,67.3,67,29.98,10.0,South,6.9,-,N/A,,Clear,170,2013-07-07 14:35:00
9:55 AM,80.2,67.1,64,29.98,10.0,SE,4.6,-,N/A,,Clear,140,2013-07-07 14:55:00
10:15 AM,80.4,66.7,63,29.98,10.0,SSW,4.6,-,N/A,,Clear,200,2013-07-07 15:15:00
10:35 AM,81.7,67.1,61,29.98,10.0,SSW,4.6,-,N/A,,Clear,200,2013-07-07 15:35:00
10:55 AM,82.6,67.3,60,29.98,10.0,SSW,4.6,-,N/A,,Clear,210,2013-07-07 15:55:00
11:15 AM,83.7,67.1,57,29.98,10.0,SW,6.9,-,N/A,,Clear,220,2013-07-07 16:15:00
11:35 AM,84.2,66.9,56,29.98,10.0,SSW,6.9,-,N/A,,Clear,200,2013-07-07 16:35:00
11:55 AM,85.1,67.1,55,29.98,10.0,SSW,5.8,-,N/A,,Clear,210,2013-07-07 16:55:00
12:15 PM,86.0,67.1,53,29.98,10.0,South,6.9,-,N/A,,Clear,190,2013-07-07 17:15:00
12:35 PM,86.7,67.5,53,29.98,10.0,SW,8.1,-,N/A,,Clear,220,2013-07-07 17:35:00
12:55 PM,87.6,67.1,50,29.97,10.0,SSW,6.9,-,N/A,,Clear,210,2013-07-07 17:55:00
1:15 PM,88.7,67.3,49,29.96,10.0,South,6.9,-,N/A,,Clear,170,2013-07-07 18:15:00
1:35 PM,89.4,66.9,47,29.96,10.0,SW,9.2,-,N/A,,Clear,230,2013-07-07 18:35:00
1:55 PM,89.4,66.0,46,29.96,10.0,SSW,9.2,-,N/A,,Clear,210,2013-07-07 18:55:00
2:15 PM,87.3,66.0,49,29.96,10.0,SSW,9.2,-,N/A,,Clear,210,2013-07-07 19:15:00
2:35 PM,88.9,65.7,46,29.96,10.0,SSW,9.2,-,N/A,,Scattered Clouds,200,2013-07-07 19:35:00
2:55 PM,91.4,66.6,44,29.95,10.0,South,8.1,-,N/A,,Scattered Clouds,190,2013-07-07 19:55:00
3:15 PM,90.9,65.7,43,29.95,10.0,South,10.4,-,N/A,,Clear,190,2013-07-07 20:15:00
3:35 PM,90.0,66.2,45,29.95,10.0,SSW,9.2,-,N/A,,Clear,210,2013-07-07 20:35:00
3:55 PM,91.2,66.0,43,29.94,10.0,South,9.2,-,N/A,,Clear,180,2013-07-07 20:55:00
4:15 PM,88.9,67.1,48,29.94,10.0,South,6.9,-,N/A,,Clear,190,2013-07-07 21:15:00
4:35 PM,90.5,67.1,46,29.94,10.0,South,8.1,-,N/A,,Clear,180,2013-07-07 21:35:00
4:55 PM,88.7,68.0,50,29.94,10.0,South,6.9,-,N/A,,Clear,190,2013-07-07 21:55:00
5:15 PM,88.9,68.4,51,29.94,10.0,SSW,8.1,-,N/A,,Clear,210,2013-07-07 22:15:00
5:35 PM,89.4,68.2,49,29.94,10.0,SSW,9.2,-,N/A,,Scattered Clouds,200,2013-07-07 22:35:00
5:55 PM,89.2,68.7,51,29.93,10.0,SSW,6.9,-,N/A,,Scattered Clouds,210,2013-07-07 22:55:00
6:15 PM,88.0,68.4,52,29.93,10.0,SSW,8.1,-,N/A,,Clear,200,2013-07-07 23:15:00
6:35 PM,86.9,69.3,56,29.93,10.0,SSW,8.1,-,N/A,,Mostly Cloudy,200,2013-07-07 23:35:00
6:55 PM,86.5,69.1,56,29.93,10.0,SW,6.9,-,N/A,,Scattered Clouds,220,2013-07-07 23:55:00
7:15 PM,86.2,69.8,58,29.93,10.0,SSW,5.8,-,N/A,,Clear,200,2013-07-08 00:15:00
7:35 PM,85.1,70.7,62,29.93,10.0,SSW,5.8,-,N/A,,Clear,200,2013-07-08 00:35:00
7:55 PM,84.2,70.9,64,29.93,10.0,South,6.9,-,N/A,,Clear,190,2013-07-08 00:55:00
8:15 PM,82.0,71.4,70,29.93,10.0,South,6.9,-,N/A,,Clear,180,2013-07-08 01:15:00
8:35 PM,80.1,70.9,73,29.93,10.0,SSE,5.8,-,N/A,,Scattered Clouds,160,2013-07-08 01:35:00
8:55 PM,79.2,70.9,76,29.93,10.0,SSE,8.1,-,N/A,,Clear,160,2013-07-08 01:55:00
9:15 PM,79.2,70.2,74,29.93,10.0,SSE,8.1,-,N/A,,Clear,160,2013-07-08 02:15:00
9:35 PM,78.4,70.0,75,29.94,10.0,South,6.9,-,N/A,,Clear,170,2013-07-08 02:35:00
9:55 PM,78.3,69.8,75,29.94,10.0,South,6.9,-,N/A,,Clear,170,2013-07-08 02:55:00
10:15 PM,78.4,68.7,72,29.95,10.0,South,6.9,-,N/A,,Scattered Clouds,170,2013-07-08 03:15:00
10:35 PM,77.0,68.9,76,29.96,10.0,South,4.6,-,N/A,,Clear,180,2013-07-08 03:35:00
10:55 PM,76.3,69.3,79,29.96,10.0,South,6.9,-,N/A,,Scattered Clouds,170,2013-07-08 03:55:00
11:15 PM,76.1,69.1,79,29.97,10.0,South,4.6,-,N/A,,Scattered Clouds,180,2013-07-08 04:15:00
11:35 PM,75.4,69.1,81,29.97,10.0,SSE,5.8,-,N/A,,Clear,160,2013-07-08 04:35:00
11:55 PM,74.3,69.4,85,29.98,10.0,SSE,4.6,-,N/A,,Clear,160,2013-07-08 04:55:00